{"data":{"norad_id":53563,"epoch":"2026-05-25T01:48:21.766752Z","epoch_age_seconds":58635,"freshness":"FRESH","line1":"1 53563U 22101AN  26145.07525193 -.00001550  00000+0 -79271-4 0  9990","line2":"2 53563  53.2131  71.4375 0001903  84.2708 275.8501 15.08845919207971","mean_motion":15.08845919,"eccentricity":0.0001903,"inclination_deg":53.2131,"raan_deg":71.4375,"arg_perigee_deg":84.2708,"mean_anomaly_deg":275.8501,"bstar":-7.9271e-5,"rev_number":20797,"period_min":95.43718028905,"perigee_km":538.40882781306,"apogee_km":541.0417662033,"semimajor_km":6917.8622970082,"source":"CELESTRAK","updated_at":"2026-05-25T13:38:17.447308Z"}}